Hondo, TX

8:24 PM CDT on October 16, 2019 (GMT -0500)
Hondo Municipal

Weather History for KHDO - September, 2019

Change the Weather History Date:

Saturday, September 21, 2019

  Actual Average Record
Temperature  
Mean Temperature 86 °F -  
Max Temperature 98 °F 87 °F 98 °F (2011)
Min Temperature 77 °F 63 °F 57 °F (2002)
Cooling Degree Days 21    
Growing Degree Days 36 (Base 50)    
Moisture  
Dew Point 70 °F    
Average Humidity 67    
Maximum Humidity 88    
Minimum Humidity 37    
Precipitation  
Precipitation 0.00 in - - ()
Sea Level Pressure  
Sea Level Pressure 29.97 in    
Wind  
Wind Speed 15 mph (SE)    
Max Wind Speed 23 mph    
Max Gust Speed 25 mph    
Visibility 10 miles    
Events      
Averages and records for this station are not official NWS values.
T = Trace of Precipitation, MM = Missing Value Source: NWS Daily Summary

Daily Weather History Graph

Daily Weather History Graph

Search for Another Location

Airport or City:

Astronomy

Sep. 21, 2019 Rise Set
Actual Time 7:24 AM CDT 7:34 PM CDT
Civil Twilight 7:00 AM CDT 7:58 PM CDT
Nautical Twilight 6:33 AM CDT 8:26 PM CDT
Astronomical Twilight 6:05 AM CDT 8:53 PM CDT
Moon No Moon Rise 2:03 PM CDT (9/21)
Length of Visible Light 12h 57m
Length of Day
12h 10m
Waning Gibbous, 54% of the Moon is Illuminated
Sep 21
Waning Gibbous
Sep 21
Last Quarter
Sep 28
New
Oct 5
First Quarter
Oct 13
Full

Hourly Weather History & Observations

Time (CDT) Temp. Heat Index Dew Point Humidity Pressure Visibility Wind Dir Wind Speed Gust Speed Precip Events Conditions
12:51 AM 80.1 °F 84.2 °F 73.0 °F 79% 29.95 in 10.0 mi SE 18.4 mph - N/A   Scattered Clouds
1:09 AM 80.1 °F 84.2 °F 73.0 °F 79% 30.00 in 10.0 mi SE 15.0 mph - N/A   Mostly Cloudy
1:51 AM 80.1 °F 84.5 °F 73.9 °F 81% 29.95 in 10.0 mi SE 13.8 mph - N/A   Overcast
2:02 AM 80.1 °F 84.5 °F 73.9 °F 81% 30.00 in 10.0 mi SE 16.1 mph - N/A   Overcast
2:12 AM 80.1 °F 84.5 °F 73.9 °F 81% 30.00 in 10.0 mi SE 13.8 mph - N/A   Overcast
2:51 AM 80.1 °F 84.2 °F 73.0 °F 79% 29.95 in 10.0 mi SSE 13.8 mph 24.2 mph N/A   Overcast
3:51 AM 79.0 °F - 73.0 °F 82% 29.94 in 10.0 mi SSE 11.5 mph - N/A   Mostly Cloudy
4:51 AM 79.0 °F - 73.0 °F 82% 29.95 in 10.0 mi SE 13.8 mph - N/A   Mostly Cloudy
5:07 AM 79.0 °F - 73.0 °F 82% 30.00 in 10.0 mi SE 12.7 mph - N/A   Overcast
5:51 AM 79.0 °F - 73.0 °F 82% 29.96 in 10.0 mi SSE 11.5 mph - N/A   Overcast
6:16 AM 78.1 °F - 73.0 °F 84% 30.02 in 10.0 mi SSE 9.2 mph - N/A   Mostly Cloudy
6:39 AM 78.1 °F - 73.0 °F 84% 30.03 in 10.0 mi SE 9.2 mph - N/A   Mostly Cloudy
6:51 AM 77.0 °F - 73.0 °F 88% 29.98 in 10.0 mi SE 9.2 mph - N/A   Mostly Cloudy
7:51 AM 77.0 °F - 73.0 °F 88% 29.99 in 10.0 mi SE 9.2 mph - N/A   Overcast
8:48 AM 78.8 °F - 73.4 °F 83% 30.04 in 10.0 mi SSE 12.7 mph - N/A   Mostly Cloudy
8:51 AM 79.0 °F - 73.0 °F 82% 30.00 in 10.0 mi SSE 12.7 mph - N/A   Mostly Cloudy
9:49 AM 80.6 °F 84.6 °F 71.6 °F 74% 30.06 in 10.0 mi SSE 15.0 mph - N/A   Mostly Cloudy
9:51 AM 82.0 °F 86.7 °F 72.0 °F 71% 30.02 in 10.0 mi SSE 15.0 mph - N/A   Mostly Cloudy
10:48 AM 86.0 °F 90.4 °F 69.8 °F 58% 30.07 in 10.0 mi SSE 13.8 mph - N/A   Scattered Clouds
10:51 AM 87.1 °F 92.0 °F 70.0 °F 57% 30.02 in 10.0 mi SSE 17.3 mph - N/A   Scattered Clouds
11:51 AM 88.0 °F 92.1 °F 69.1 °F 53% 30.01 in 10.0 mi SSE 12.7 mph - N/A   Mostly Cloudy
12:51 PM 91.0 °F 93.8 °F 66.0 °F 44% 29.99 in 10.0 mi SSE 16.1 mph 23.0 mph N/A   Partly Cloudy
1:51 PM 95.0 °F 97.4 °F 64.9 °F 37% 29.95 in 10.0 mi SSE 15.0 mph 23.0 mph N/A   Partly Cloudy
2:51 PM 93.0 °F 94.6 °F 64.0 °F 38% 29.92 in 10.0 mi SSE 16.1 mph 25.3 mph N/A   Partly Cloudy
3:51 PM 93.9 °F 95.6 °F 64.0 °F 37% 29.89 in 10.0 mi SSE 15.0 mph 21.9 mph N/A   Clear
4:51 PM 91.9 °F 95.9 °F 68.0 °F 45% 29.88 in 10.0 mi SSE 23.0 mph - N/A   Mostly Cloudy
5:51 PM 93.0 °F 96.4 °F 66.9 °F 42% 29.88 in 10.0 mi SE 18.4 mph - N/A   Clear
6:51 PM 90.0 °F 92.8 °F 66.9 °F 46% 29.89 in 10.0 mi SE 19.6 mph - N/A   Clear
7:51 PM 87.1 °F 89.2 °F 66.0 °F 49% 29.90 in 10.0 mi SE 17.3 mph 24.2 mph N/A   Clear
8:51 PM 84.9 °F 87.6 °F 66.9 °F 55% 29.92 in 10.0 mi SSE 16.1 mph - N/A   Clear
9:51 PM 84.0 °F 85.8 °F 64.9 °F 53% 29.94 in 10.0 mi SE 16.1 mph - N/A   Clear
10:51 PM 82.0 °F 84.9 °F 68.0 °F 62% 29.96 in 10.0 mi SE 19.6 mph 25.3 mph N/A   Clear
11:51 PM 80.1 °F 83.2 °F 70.0 °F 71% 29.97 in 10.0 mi SE 15.0 mph - N/A   Clear